Time,TemperatureF,DewpointF,PressureIn,WindDirection,WindDirectionDegrees,WindSpeedMPH,WindSpeedGustMPH,Humidity,HourlyPrecipIn,Conditions,Clouds,dailyrainin,SoftwareType,DateUTC
2013-10-02 00:14:00,-999.0,-99.9,26.54,North,-999,-999.0,-999.0,-999,0.00,,,0.00,weatherlink.com 1.10,2013-10-02 04:14:00,
2013-10-02 00:29:00,-999.0,-99.9,26.54,North,-999,-999.0,-999.0,-999,0.00,,,0.00,weatherlink.com 1.10,2013-10-02 04:29:00,
2013-10-02 00:44:00,-999.0,-99.9,26.54,North,-999,-999.0,-999.0,-999,0.00,,,0.00,weatherlink.com 1.10,2013-10-02 04:44:00,
2013-10-02 00:59:00,-999.0,-99.9,26.54,North,-999,-999.0,-999.0,-999,0.00,,,0.00,weatherlink.com 1.10,2013-10-02 04:59:00,
2013-10-02 01:14:00,-999.0,-99.9,26.53,North,-999,-999.0,-999.0,-999,0.00,,,0.00,weatherlink.com 1.10,2013-10-02 05:14:00,
2013-10-02 01:29:00,-999.0,-99.9,26.53,North,-999,-999.0,-999.0,-999,0.00,,,0.00,weatherlink.com 1.10,2013-10-02 05:29:00,
2013-10-02 01:44:00,-999.0,-99.9,26.53,North,-999,-999.0,-999.0,-999,0.00,,,0.00,weatherlink.com 1.10,2013-10-02 05:44:00,
2013-10-02 02:00:00,-999.0,-99.9,26.53,North,-999,-999.0,-999.0,-999,0.00,,,0.00,weatherlink.com 1.10,2013-10-02 06:00:00,
2013-10-02 02:15:00,-999.0,-99.9,26.53,North,-999,-999.0,-999.0,-999,0.00,,,0.00,weatherlink.com 1.10,2013-10-02 06:15:00,
2013-10-02 02:30:00,-999.0,-99.9,26.53,North,-999,-999.0,-999.0,-999,0.00,,,0.00,weatherlink.com 1.10,2013-10-02 06:30:00,
2013-10-02 02:45:00,-999.0,-99.9,26.53,North,-999,-999.0,-999.0,-999,0.00,,,0.00,weatherlink.com 1.10,2013-10-02 06:45:00,
2013-10-02 03:00:00,-999.0,-99.9,26.53,North,-999,-999.0,-999.0,-999,0.00,,,0.00,weatherlink.com 1.10,2013-10-02 07:00:00,
2013-10-02 03:15:00,-999.0,-99.9,26.53,North,-999,-999.0,-999.0,-999,0.00,,,0.00,weatherlink.com 1.10,2013-10-02 07:15:00,
2013-10-02 03:30:00,-999.0,-99.9,26.52,North,-999,-999.0,-999.0,-999,0.00,,,0.00,weatherlink.com 1.10,2013-10-02 07:30:00,
2013-10-02 03:45:00,-999.0,-99.9,26.52,North,-999,-999.0,-999.0,-999,0.00,,,0.00,weatherlink.com 1.10,2013-10-02 07:45:00,
2013-10-02 04:00:00,-999.0,-99.9,26.52,North,-999,-999.0,-999.0,-999,0.00,,,0.00,weatherlink.com 1.10,2013-10-02 08:00:00,
2013-10-02 04:15:00,-999.0,-99.9,26.52,North,-999,-999.0,-999.0,-999,0.00,,,0.00,weatherlink.com 1.10,2013-10-02 08:15:00,
2013-10-02 04:30:00,-999.0,-99.9,26.52,North,-999,-999.0,-999.0,-999,0.00,,,0.00,weatherlink.com 1.10,2013-10-02 08:30:00,
2013-10-02 04:45:00,-999.0,-99.9,26.52,North,-999,-999.0,-999.0,-999,0.00,,,0.00,weatherlink.com 1.10,2013-10-02 08:45:00,
2013-10-02 05:00:00,-999.0,-99.9,26.52,North,-999,-999.0,-999.0,-999,0.00,,,0.00,weatherlink.com 1.10,2013-10-02 09:00:00,
2013-10-02 05:16:00,-999.0,-99.9,26.52,North,-999,-999.0,-999.0,-999,0.00,,,0.00,weatherlink.com 1.10,2013-10-02 09:16:00,
2013-10-02 05:31:00,-999.0,-99.9,26.52,North,-999,-999.0,-999.0,-999,0.00,,,0.00,weatherlink.com 1.10,2013-10-02 09:31:00,
2013-10-02 05:46:00,-999.0,-99.9,26.52,North,-999,-999.0,-999.0,-999,0.00,,,0.00,weatherlink.com 1.10,2013-10-02 09:46:00,
2013-10-02 06:01:00,-999.0,-99.9,26.53,North,-999,-999.0,-999.0,-999,0.00,,,0.00,weatherlink.com 1.10,2013-10-02 10:01:00,
2013-10-02 06:16:00,-999.0,-99.9,26.53,North,-999,-999.0,-999.0,-999,0.00,,,0.00,weatherlink.com 1.10,2013-10-02 10:16:00,
2013-10-02 06:31:00,-999.0,-99.9,26.53,North,-999,-999.0,-999.0,-999,0.00,,,0.00,weatherlink.com 1.10,2013-10-02 10:31:00,
2013-10-02 06:46:00,-999.0,-99.9,26.54,North,-999,-999.0,-999.0,-999,0.00,,,0.00,weatherlink.com 1.10,2013-10-02 10:46:00,
2013-10-02 07:01:00,-999.0,-99.9,26.54,North,-999,-999.0,-999.0,-999,0.00,,,0.00,weatherlink.com 1.10,2013-10-02 11:01:00,
2013-10-02 07:16:00,-999.0,-99.9,26.55,North,-999,-999.0,-999.0,-999,0.00,,,0.00,weatherlink.com 1.10,2013-10-02 11:16:00,
2013-10-02 07:31:00,-999.0,-99.9,26.55,North,-999,-999.0,-999.0,-999,0.00,,,0.00,weatherlink.com 1.10,2013-10-02 11:31:00,
2013-10-02 07:46:00,-999.0,-99.9,26.55,North,-999,-999.0,-999.0,-999,0.00,,,0.00,weatherlink.com 1.10,2013-10-02 11:46:00,
2013-10-02 08:01:00,-999.0,-99.9,26.55,North,-999,-999.0,-999.0,-999,0.00,,,0.00,weatherlink.com 1.10,2013-10-02 12:01:00,
2013-10-02 08:16:00,45.4,45.0,26.56,NNW,331,0.0,3.0,98,0.00,,,0.00,weatherlink.com 1.10,2013-10-02 12:16:00,
2013-10-02 08:32:00,48.0,48.0,26.56,NNW,331,0.0,0.0,98,0.00,,,0.00,weatherlink.com 1.10,2013-10-02 12:32:00,
2013-10-02 08:47:00,49.5,49.0,26.57,NNW,331,0.0,1.0,98,0.00,,,0.00,weatherlink.com 1.10,2013-10-02 12:47:00,
2013-10-02 09:02:00,51.4,51.0,26.57,NNW,331,0.0,0.0,98,0.00,,,0.00,weatherlink.com 1.10,2013-10-02 13:02:00,
2013-10-02 09:17:00,54.1,54.0,26.57,NNW,331,4.0,6.0,99,0.00,,,0.00,weatherlink.com 1.10,2013-10-02 13:17:00,
2013-10-02 09:32:00,58.0,58.0,26.58,NNE,12,7.0,11.0,98,0.00,,,0.00,weatherlink.com 1.10,2013-10-02 13:32:00,
2013-10-02 09:47:00,60.1,56.0,26.57,North,360,5.0,14.0,87,0.00,,,0.00,weatherlink.com 1.10,2013-10-02 13:47:00,
2013-10-02 10:02:00,61.2,56.0,26.57,NNW,341,8.0,15.0,82,0.00,,,0.00,weatherlink.com 1.10,2013-10-02 14:02:00,
2013-10-02 10:17:00,62.0,56.0,26.57,NNW,342,10.0,14.0,80,0.00,,,0.00,weatherlink.com 1.10,2013-10-02 14:17:00,
2013-10-02 10:32:00,62.3,55.0,26.58,NW,326,12.0,17.0,78,0.00,,,0.00,weatherlink.com 1.10,2013-10-02 14:32:00,
2013-10-02 10:47:00,62.1,55.0,26.57,NW,325,8.0,18.0,77,0.00,,,0.00,weatherlink.com 1.10,2013-10-02 14:47:00,
2013-10-02 11:02:00,62.6,55.0,26.58,North,5,5.0,13.0,76,0.00,,,0.00,weatherlink.com 1.10,2013-10-02 15:02:00,
2013-10-02 11:17:00,63.5,53.0,26.58,North,349,11.0,13.0,69,0.00,,,0.00,weatherlink.com 1.10,2013-10-02 15:17:00,
2013-10-02 11:32:00,63.7,53.0,26.58,North,5,5.0,13.0,69,0.00,,,0.00,weatherlink.com 1.10,2013-10-02 15:32:00,
2013-10-02 11:47:00,64.2,54.0,26.57,NNE,16,6.0,15.0,70,0.00,,,0.00,weatherlink.com 1.10,2013-10-02 15:47:00,
2013-10-02 12:02:00,64.3,54.0,26.57,North,355,7.0,15.0,69,0.00,,,0.00,weatherlink.com 1.10,2013-10-02 16:02:00,
2013-10-02 12:17:00,64.8,54.0,26.56,WNW,292,2.0,12.0,67,0.00,,,0.00,weatherlink.com 1.10,2013-10-02 16:17:00,
2013-10-02 12:32:00,65.5,55.0,26.56,NNE,13,9.0,15.0,68,0.00,,,0.00,weatherlink.com 1.10,2013-10-02 16:32:00,
2013-10-02 12:47:00,65.6,54.0,26.56,North,9,9.0,14.0,66,0.00,,,0.00,weatherlink.com 1.10,2013-10-02 16:47:00,
2013-10-02 13:02:00,65.8,54.0,26.55,NW,326,9.0,16.0,67,0.00,,,0.00,weatherlink.com 1.10,2013-10-02 17:02:00,
2013-10-02 13:17:00,65.8,54.0,26.55,NNW,348,8.0,14.0,65,0.00,,,0.00,weatherlink.com 1.10,2013-10-02 17:17:00,
2013-10-02 13:32:00,67.4,53.0,26.55,WNW,286,4.0,8.0,61,0.00,,,0.00,weatherlink.com 1.10,2013-10-02 17:32:00,
2013-10-02 13:47:00,66.3,52.0,26.54,NNW,344,7.0,11.0,60,0.00,,,0.00,weatherlink.com 1.10,2013-10-02 17:47:00,
2013-10-02 14:02:00,66.9,53.0,26.54,NW,323,4.0,11.0,61,0.00,,,0.00,weatherlink.com 1.10,2013-10-02 18:02:00,
2013-10-02 14:17:00,66.9,53.0,26.54,NNW,343,4.0,10.0,61,0.00,,,0.00,weatherlink.com 1.10,2013-10-02 18:17:00,
2013-10-02 14:32:00,66.8,52.0,26.53,NNW,327,3.0,11.0,60,0.00,,,0.00,weatherlink.com 1.10,2013-10-02 18:32:00,
2013-10-02 14:47:00,67.1,52.0,26.53,North,350,5.0,8.0,59,0.00,,,0.00,weatherlink.com 1.10,2013-10-02 18:47:00,
2013-10-02 15:02:00,67.9,53.0,26.53,North,355,7.0,9.0,59,0.00,,,0.00,weatherlink.com 1.10,2013-10-02 19:02:00,
2013-10-02 15:32:00,68.9,53.0,26.52,NNW,345,3.0,8.0,57,0.00,,,0.00,weatherlink.com 1.10,2013-10-02 19:32:00,
2013-10-02 15:47:00,69.6,53.0,26.52,North,360,3.0,5.0,56,0.00,,,0.00,weatherlink.com 1.10,2013-10-02 19:47:00,
2013-10-02 16:02:00,69.6,54.0,26.52,NW,315,3.0,8.0,59,0.00,,,0.00,weatherlink.com 1.10,2013-10-02 20:02:00,
2013-10-02 16:18:00,70.8,53.0,26.52,WNW,292,6.0,8.0,54,0.00,,,0.00,weatherlink.com 1.10,2013-10-02 20:18:00,
2013-10-02 16:33:00,69.3,54.0,26.51,NW,323,0.0,6.0,58,0.00,,,0.00,weatherlink.com 1.10,2013-10-02 20:33:00,
2013-10-02 16:48:00,70.3,53.0,26.51,NW,321,0.0,1.0,55,0.00,,,0.00,weatherlink.com 1.10,2013-10-02 20:48:00,
2013-10-02 17:03:00,69.8,57.0,26.51,NW,321,0.0,0.0,63,0.00,,,0.00,weatherlink.com 1.10,2013-10-02 21:03:00,
2013-10-02 17:18:00,68.9,56.0,26.51,NW,321,0.0,0.0,64,0.00,,,0.00,weatherlink.com 1.10,2013-10-02 21:18:00,
2013-10-02 17:33:00,69.8,58.0,26.52,NW,321,0.0,0.0,66,0.00,,,0.00,weatherlink.com 1.10,2013-10-02 21:33:00,
2013-10-02 17:48:00,69.8,57.0,26.52,NW,319,0.0,3.0,63,0.00,,,0.00,weatherlink.com 1.10,2013-10-02 21:48:00,
2013-10-02 18:03:00,67.9,57.0,26.52,NW,319,3.0,4.0,68,0.00,,,0.00,weatherlink.com 1.10,2013-10-02 22:03:00,
2013-10-02 18:18:00,66.9,56.0,26.52,NW,319,0.0,1.0,69,0.00,,,0.00,weatherlink.com 1.10,2013-10-02 22:18:00,
2013-10-02 18:33:00,65.6,58.0,26.52,NW,319,0.0,3.0,75,0.00,,,0.00,weatherlink.com 1.10,2013-10-02 22:33:00,
2013-10-02 18:48:00,64.8,57.0,26.52,NW,319,0.0,5.0,77,0.00,,,0.00,weatherlink.com 1.10,2013-10-02 22:48:00,
2013-10-02 19:03:00,-999.0,-99.9,26.53,North,-999,-999.0,-999.0,-999,0.00,,,0.00,weatherlink.com 1.10,2013-10-02 23:03:00,
2013-10-02 19:18:00,-999.0,-99.9,26.53,North,-999,-999.0,-999.0,-999,0.00,,,0.00,weatherlink.com 1.10,2013-10-02 23:18:00,
2013-10-02 19:33:00,-999.0,-99.9,26.53,North,-999,-999.0,-999.0,-999,0.00,,,0.00,weatherlink.com 1.10,2013-10-02 23:33:00,
2013-10-02 19:48:00,-999.0,-99.9,26.53,North,-999,-999.0,-999.0,-999,0.00,,,0.00,weatherlink.com 1.10,2013-10-02 23:48:00,
2013-10-02 20:03:00,-999.0,-99.9,26.53,North,-999,-999.0,-999.0,-999,0.00,,,0.00,weatherlink.com 1.10,2013-10-03 00:03:00,
2013-10-02 20:18:00,-999.0,-99.9,26.53,North,-999,-999.0,-999.0,-999,0.00,,,0.00,weatherlink.com 1.10,2013-10-03 00:18:00,
2013-10-02 20:33:00,-999.0,-99.9,26.54,North,-999,-999.0,-999.0,-999,0.00,,,0.00,weatherlink.com 1.10,2013-10-03 00:33:00,
2013-10-02 20:48:00,-999.0,-99.9,26.54,North,-999,-999.0,-999.0,-999,0.00,,,0.00,weatherlink.com 1.10,2013-10-03 00:48:00,
2013-10-02 21:03:00,-999.0,-99.9,26.54,North,-999,-999.0,-999.0,-999,0.00,,,0.00,weatherlink.com 1.10,2013-10-03 01:03:00,
2013-10-02 21:18:00,-999.0,-99.9,26.54,North,-999,-999.0,-999.0,-999,0.00,,,0.00,weatherlink.com 1.10,2013-10-03 01:18:00,
2013-10-02 21:33:00,-999.0,-99.9,26.54,North,-999,-999.0,-999.0,-999,0.00,,,0.00,weatherlink.com 1.10,2013-10-03 01:33:00,
2013-10-02 21:48:00,-999.0,-99.9,26.54,North,-999,-999.0,-999.0,-999,0.00,,,0.00,weatherlink.com 1.10,2013-10-03 01:48:00,
2013-10-02 22:04:00,-999.0,-99.9,26.54,North,-999,-999.0,-999.0,-999,0.00,,,0.00,weatherlink.com 1.10,2013-10-03 02:04:00,
2013-10-02 22:19:00,-999.0,-99.9,26.54,North,-999,-999.0,-999.0,-999,0.00,,,0.00,weatherlink.com 1.10,2013-10-03 02:19:00,
2013-10-02 22:34:00,-999.0,-99.9,26.55,North,-999,-999.0,-999.0,-999,0.00,,,0.00,weatherlink.com 1.10,2013-10-03 02:34:00,
2013-10-02 22:49:00,-999.0,-99.9,26.55,North,-999,-999.0,-999.0,-999,0.00,,,0.00,weatherlink.com 1.10,2013-10-03 02:49:00,
2013-10-02 23:04:00,-999.0,-99.9,26.55,North,-999,-999.0,-999.0,-999,0.00,,,0.00,weatherlink.com 1.10,2013-10-03 03:04:00,
2013-10-02 23:19:00,-999.0,-99.9,26.55,North,-999,-999.0,-999.0,-999,0.00,,,0.00,weatherlink.com 1.10,2013-10-03 03:19:00,
2013-10-02 23:34:00,-999.0,-99.9,26.55,North,-999,-999.0,-999.0,-999,0.00,,,0.00,weatherlink.com 1.10,2013-10-03 03:34:00,
2013-10-02 23:49:00,-999.0,-99.9,26.55,North,-999,-999.0,-999.0,-999,0.00,,,0.00,weatherlink.com 1.10,2013-10-03 03:49:00,